Weather History for KNYL - September, 2011

Change the Weather History Date:

Sunday, September 4, 2011

  Actual Average Record
Temperature  
Mean Temperature 97 °F 92 °F  
Max Temperature 111 °F 105 °F 116 °F (1945)
Min Temperature 82 °F 80 °F 60 °F (1936)
Degree Days  
Heating Degree Days 0 0  
Month to date heating degree days 0 0  
Since 1 July heating degree days 0 0  
Cooling Degree Days 32 27  
Month to date cooling degree days 123 111  
Year to date cooling degree days 3565 3564  
Growing Degree Days 46 (Base 50)    
Moisture  
Dew Point 61 °F    
Average Humidity 39    
Maximum Humidity 69    
Minimum Humidity 9    
Precipitation  
Precipitation 0.00 in 0.01 in 2.26 in (1998)
Month to date precipitation 0.00 0.07  
Year to date precipitation 0.83 2.16  
Sea Level Pressure  
Sea Level Pressure 29.68 in    
Wind  
Wind Speed 7 mph (South)    
Max Wind Speed 16 mph    
Max Gust Speed 18 mph    
Visibility 10 miles    
Events      
T = Trace of Precipitation, MM = Missing Value Source: NWS Daily Summary

Daily Weather History Graph

Daily Weather History Graph

Search for Another Location

Airport or City:

Trip Planner

Search our weather history database for the weather conditions in past years. The results will help you decide how hot, cold, wet, or windy it might be!

Date:

Astronomy

Sep. 04, 2011 Rise Set
Actual Time 6:15 AM MST 6:59 PM MST
Civil Twilight 5:50 AM MST 7:24 PM MST
Nautical Twilight 5:20 AM MST 7:53 PM MST
Astronomical Twilight 4:50 AM MST 8:23 PM MST
Moon 1:35 PM MST (9/4) 11:51 PM MST (9/4)
Length of Visible Light 13h 34m
Length of Day
12h 44m
Waxing Crescent, 51% of the Moon is Illuminated
Sep 4
Waxing Crescent
Sep 12
Full
Sep 20
Last Quarter
Sep 27
New
Oct 3
First Quarter

Hourly Weather History & Observations

Time (MST) Temp. Heat Index Dew Point Humidity Pressure Visibility Wind Dir Wind Speed Gust Speed Precip Events Conditions
12:55 AM 88.0 °F 95.6 °F 73.0 °F 61% 29.68 in 10.0 mi South 4.6 mph - N/A   Clear
1:55 AM 87.1 °F 92.0 °F 70.0 °F 57% 29.67 in 10.0 mi South 4.6 mph - N/A   Clear
2:55 AM 84.9 °F 88.2 °F 68.0 °F 57% 29.67 in 10.0 mi South 4.6 mph - N/A   Clear
3:55 AM 84.0 °F 86.5 °F 66.9 °F 56% 29.67 in 10.0 mi South 5.8 mph - N/A   Clear
4:55 AM 84.0 °F 86.5 °F 66.9 °F 56% 29.68 in 10.0 mi South 3.5 mph - N/A   Clear
5:55 AM 84.0 °F 85.8 °F 64.9 °F 53% 29.69 in 10.0 mi SSE 6.9 mph - N/A   Clear
6:55 AM 82.9 °F 88.0 °F 72.0 °F 69% 29.71 in 10.0 mi SSE 8.1 mph - N/A   Clear
7:55 AM 87.1 °F 96.3 °F 75.0 °F 67% 29.73 in 10.0 mi SSE 12.7 mph - N/A   Clear
8:55 AM 90.0 °F 99.0 °F 73.9 °F 59% 29.74 in 10.0 mi South 12.7 mph - N/A   Clear
9:55 AM 93.9 °F 97.5 °F 66.9 °F 41% 29.75 in 10.0 mi SSW 8.1 mph - N/A   Clear
10:55 AM 98.1 °F 99.6 °F 63.0 °F 31% 29.74 in 10.0 mi SSW 8.1 mph - N/A   Clear
11:55 AM 102.0 °F 101.6 °F 57.9 °F 23% 29.73 in 10.0 mi Variable 4.6 mph - N/A   Clear
12:55 PM 105.1 °F - 46.0 °F 14% 29.71 in 10.0 mi Variable 3.5 mph - N/A   Clear
1:55 PM 107.1 °F - 44.1 °F 12% 29.68 in 10.0 mi Calm Calm - N/A   Clear
2:55 PM 108.0 °F - 42.1 °F 11% 29.66 in 10.0 mi SSE 3.5 mph - N/A   Scattered Clouds
3:55 PM 111.0 °F - 39.9 °F 9% 29.64 in 10.0 mi South 8.1 mph - N/A   Scattered Clouds
4:55 PM 109.9 °F - 43.0 °F 11% 29.63 in 10.0 mi SSW 5.8 mph - N/A   Scattered Clouds
5:55 PM 109.9 °F - 43.0 °F 11% 29.62 in 10.0 mi West 10.4 mph - N/A   Mostly Cloudy
6:55 PM 105.1 °F - 45.0 °F 13% 29.63 in 10.0 mi West 5.8 mph - N/A   Scattered Clouds
7:55 PM 100.9 °F 102.1 °F 61.0 °F 27% 29.65 in 10.0 mi WSW 5.8 mph - N/A   Clear
8:55 PM 97.0 °F 99.9 °F 64.9 °F 35% 29.66 in 10.0 mi SSW 5.8 mph - N/A   Clear
9:55 PM 93.0 °F 97.4 °F 68.0 °F 44% 29.68 in 10.0 mi SSW 6.9 mph - N/A   Clear
10:55 PM 91.9 °F 96.9 °F 69.1 °F 47% 29.69 in 10.0 mi South 8.1 mph - N/A   Clear
11:55 PM 91.0 °F 97.6 °F 71.1 °F 52% 29.70 in 10.0 mi South 13.8 mph - N/A   Clear